Location: Contre
(49.7477°N, 2.0963°E)
Time: 18:39:52
(UTC+00:00)

DMSP B5D2-2 - Pass Details

Date: 03 February 2023
Orbit: 788 x 805 km, 98.3° (Epoch: 26 March)

Event Time Altitude Azimuth Distance (km) Brightness Sun altitude
Rises 17:26:39 0° 17° (NNE) 3,334 7.0 -6.4°
Reaches altitude 10° 17:29:03 10° 21° (NNE) 2,397 6.2 -6.8°
Maximum altitude 17:34:17 57° 100° (E) 944 4.2 -7.6°
Drops below altitude 10° 17:39:26 10° 179° (S) 2,371 6.7 -8.4°
Sets 17:41:48 0° 184° (S) 3,294 7.5 -8.8°
